Location: Góry Miechowskie
(50.3599°N, 20.1803°E)
Time: 19:59:17
(UTC+00:00)

Cosmos 2219 - Pass Details

Date: 23 September 2024
Orbit: 831 x 860 km, 71.1° (Epoch: 13 October)

Event Time Altitude Azimuth Distance (km) Brightness Sun altitude
Exits shadow 02:59:24 - 195° (SSW) 3,306 6.0 -14.7°
Reaches altitude 10° 03:01:36 10° 193° (SSW) 2,467 5.3 -14.3°
Maximum altitude 03:07:12 63° 113° (ESE) 952 3.7 -13.5°
Drops below altitude 10° 03:12:52 10° 34° (NE) 2,501 6.4 -12.6°
Sets 03:15:21 0° 32° (NNE) 3,445 7.1 -12.2°
